TimeCDT,TemperatureF,Dew PointF,Humidity,Sea Level PressureIn,VisibilityMPH,Wind Direction,Wind SpeedMPH,Gust SpeedMPH,PrecipitationIn,Events,Conditions,WindDirDegrees,DateUTC
12:52 AM,55.0,37.9,53,29.69,10.0,SSW,11.5,-,N/A,,Overcast,200,2013-03-10 06:52:00
1:52 AM,55.0,36.0,49,29.65,10.0,South,16.1,-,N/A,,Overcast,190,2013-03-10 07:52:00
3:25 AM,48.2,39.2,71,29.70,10.0,WNW,23.0,28.8,N/A,,Mostly Cloudy,300,2013-03-10 08:25:00
3:32 AM,48.2,39.2,71,29.70,10.0,WNW,16.1,-,N/A,,Overcast,290,2013-03-10 08:32:00
3:52 AM,46.0,37.9,73,29.68,10.0,WNW,16.1,-,N/A,,Overcast,300,2013-03-10 08:52:00
4:52 AM,43.0,36.0,76,29.71,10.0,WNW,16.1,-,N/A,,Mostly Cloudy,290,2013-03-10 09:52:00
5:34 AM,42.8,35.6,76,29.72,10.0,WNW,13.8,-,N/A,,Overcast,290,2013-03-10 10:34:00
5:52 AM,43.0,35.1,74,29.73,10.0,WNW,10.4,-,N/A,,Overcast,290,2013-03-10 10:52:00
6:52 AM,43.0,35.1,74,29.75,10.0,NW,20.7,27.6,N/A,,Overcast,310,2013-03-10 11:52:00
7:28 AM,41.0,35.6,81,29.76,10.0,NW,20.7,-,N/A,,Overcast,320,2013-03-10 12:28:00
7:52 AM,39.9,35.1,83,29.78,10.0,NNW,24.2,29.9,N/A,,Overcast,330,2013-03-10 12:52:00
8:52 AM,39.0,33.1,79,29.80,10.0,NW,24.2,28.8,N/A,,Overcast,320,2013-03-10 13:52:00
9:39 AM,37.4,33.8,87,29.83,2.5,NW,21.9,29.9,0.00,Rain,Light Rain,310,2013-03-10 14:39:00
9:52 AM,37.0,33.1,86,29.85,2.5,NW,25.3,31.1,0.00,Rain,Light Rain,320,2013-03-10 14:52:00
10:16 AM,37.4,33.8,87,29.85,3.0,NW,21.9,-,0.00,,Light Drizzle,320,2013-03-10 15:16:00
10:52 AM,37.0,33.1,86,29.88,10.0,NNW,20.7,29.9,0.00,,Overcast,330,2013-03-10 15:52:00
11:20 AM,37.4,33.8,87,29.88,10.0,NNW,21.9,31.1,0.00,,Overcast,330,2013-03-10 16:20:00
11:52 AM,37.9,32.0,79,29.90,10.0,NW,18.4,26.5,0.00,Rain,Light Rain,320,2013-03-10 16:52:00
12:52 PM,37.9,28.9,70,29.92,10.0,NW,21.9,32.2,0.00,,Overcast,320,2013-03-10 17:52:00
1:52 PM,37.0,28.0,70,29.94,10.0,NW,25.3,32.2,N/A,,Overcast,320,2013-03-10 18:52:00
2:52 PM,39.9,26.1,58,29.94,10.0,NNW,25.3,32.2,N/A,,Overcast,330,2013-03-10 19:52:00
3:09 PM,39.2,26.6,61,29.95,10.0,NW,21.9,29.9,N/A,,Overcast,320,2013-03-10 20:09:00
3:52 PM,39.0,27.0,62,29.96,10.0,NNW,25.3,31.1,N/A,,Overcast,330,2013-03-10 20:52:00
4:52 PM,39.0,26.1,60,29.98,10.0,NNW,25.3,33.4,N/A,,Overcast,330,2013-03-10 21:52:00
5:52 PM,37.9,26.1,62,29.99,10.0,NNW,20.7,-,N/A,,Overcast,330,2013-03-10 22:52:00
6:52 PM,37.0,26.1,65,30.01,10.0,NNW,18.4,-,N/A,,Overcast,330,2013-03-10 23:52:00
7:52 PM,37.0,25.0,62,30.03,10.0,NNW,16.1,-,N/A,,Overcast,330,2013-03-11 00:52:00
8:52 PM,36.0,26.1,67,30.05,10.0,NNW,11.5,-,N/A,,Overcast,330,2013-03-11 01:52:00
9:52 PM,36.0,26.1,67,30.08,10.0,NNW,10.4,-,N/A,,Overcast,330,2013-03-11 02:52:00
10:52 PM,35.6,26.6,70,30.07,10.0,NW,8.1,-,N/A,,Overcast,310,2013-03-11 03:52:00
11:52 PM,36.0,27.0,70,30.08,10.0,NW,8.1,-,N/A,,Overcast,320,2013-03-11 04:52:00
12:52 AM,36.0,27.0,70,30.06,10.0,WNW,6.9,-,N/A,,Mostly Cloudy,290,2013-03-11 05:52:00